Flag for Germany Weather past 2 weeks in Sankt Ingbert, Saarland, Germany

Now
45 °F

Passing clouds.


Feels Like: 45 °F
Forecast: 30 / 50 °F
Wind: 1 mph from West

Location: Saarbruecken / Ensheim

Current Time: Mar 6, 2015 at 1:45:22 PM

Latest Report: Mar 6, 2015 at 1:00 PM


Visibility: 22 mi

Pressure: 30.66 "Hg

Humidity: 53%

Dew point: 29 °F

Location of Sankt IngbertLocation

Historic Weather in Sankt Ingbert — Graph

°F

Sankt Ingbert temperature yesterday

Maximum temperature yesterday: 45 °F (at 4:00 PM)
Minimum temperature yesterday: 31 °F (at 5:00 AM)
Average temperature yesterday: 38 °F

Past Weeks' High & Low Weather Summary

 TemperatureHumidityPressure
High51 °F (Feb 20, 4:00 PM)100% (Feb 23, 9:00 AM)30.71 "Hg (Feb 23, 9:00 AM)
Low27 °F (Feb 28, 7:00 AM)46% (Feb 28, 3:00 PM)29.50 "Hg (Feb 21, 5:00 AM)
Average38 °F84%30.03 "Hg
* Reported Feb 19 1:00 PM — Mar 6 1:00 PM, Sankt Ingbert, Weather by CustomWeather, © 2015

Note: Actual official high and low records may vary slightly from our data, if they occured in-between our weather recording intervals... More about our weather records

Advertising

Sankt Ingbert weather history for previous 24 hours

 ConditionsComfort  
Time TempWeatherWind HumidityBarometerVisibility
1:00 PM
Fri, Mar 6
45 °FPassing clouds.1 mph53%30.66 "Hg22 mi
12:00 PM46 °FPassing clouds.2 mph58%30.66 "Hg22 mi
11:00 AM42 °FPassing clouds.2 mph63%30.67 "Hg19 mi
10:00 AM41 °FPassing clouds.2 mph72%30.68 "Hg16 mi
9:00 AM37 °FScattered clouds.No wind78%30.69 "Hg12 mi
8:00 AM30 °FPartly sunny.No wind91%30.71 "Hg12 mi
7:00 AM28 °FPassing clouds.No wind96%30.71 "Hg12 mi
6:00 AM29 °FPassing clouds.No wind95%30.70 "Hg16 mi
5:00 AM29 °FClear.No wind94%30.69 "Hg22 mi
4:00 AM30 °FClear.No wind92%30.68 "Hg25 mi
3:00 AM31 °FClear.No wind91%30.68 "Hg28 mi
2:00 AM32 °FPassing clouds.6 mph85%30.68 "Hg2 mi
1:00 AM32 °FPassing clouds.No wind85%30.69 "Hg25 mi
12:00 AM35 °FPassing clouds.1 mph84%30.69 "Hg19 mi
10:00 PM
Thu, Mar 5
38 °FPassing clouds.15 mph73%30.68 "Hg4 mi
9:00 PM36 °FPassing clouds.1 mph75%30.67 "Hg25 mi
8:00 PM37 °FPassing clouds.2 mph71%30.67 "Hg31 mi
7:00 PMN/APassing clouds.1 mphN/AN/A5 mi
6:00 PM41 °FScattered clouds.2 mph60%30.63 "Hg31 mi
5:00 PM45 °FScattered clouds.5 mph53%30.62 "Hg31 mi
4:00 PM45 °FScattered clouds.5 mph53%30.62 "Hg31 mi
3:00 PM45 °FScattered clouds.2 mph50%30.62 "Hg31 mi
2:00 PM43 °FPartly sunny.5 mph54%30.64 "Hg31 mi
1:00 PM44 °FPartly sunny.5 mph57%30.64 "Hg31 mi
Weather by CustomWeather, © 2015

See weather overviewHow to use our weather pages